This is the latest recevied weather packets stored in our database for station/object K2ATL. If no packets are shown the sender has not sent any weather packets the latest 10 day(s).
| Time | Temp. | Humidity | Pressure | Rain* | Wind** | Luminosity | Snow |
|---|---|---|---|---|---|---|---|
| 1777447718 | 15° C | 99% | 1101.1 hPa | 1.27 mm | - | 0 W/m² | - |
| 1777447415 | 15° C | 99% | 1101.1 hPa | 1.78 mm | - | 0 W/m² | - |
| 1777447112 | 15° C | 99% | 1101.2 hPa | 1.78 mm | - | 0 W/m² | - |
| 1777446811 | 15° C | 99% | 1101.2 hPa | 1.27 mm | - | 0 W/m² | - |
| 1777446511 | 15° C | 99% | 1101.2 hPa | 1.27 mm | - | 0 W/m² | - |
| 1777446208 | 15° C | 99% | 1101.5 hPa | 0 mm | - | 0 W/m² | - |
| 1777445905 | 15° C | 99% | 1101.4 hPa | 1.78 mm | - | 0 W/m² | - |
| 1777445601 | 15° C | 99% | 1101.5 hPa | 1.78 mm | - | 0 W/m² | - |
| 1777445298 | 15° C | 99% | 1101.1 hPa | 0 mm | - | 0 W/m² | - |
| 1777444994 | 15° C | 99% | 1101 hPa | 0 mm | - | 0 W/m² | - |
| 1777444689 | 15° C | 98% | 1101.1 hPa | 0 mm | - | 0 W/m² | - |
| 1777444386 | 15° C | 98% | 1101.2 hPa | 0 mm | - | 0 W/m² | - |
| 1777444084 | 15° C | 98% | 1101.4 hPa | 0 mm | - | 0 W/m² | - |
| 1777443779 | 15° C | 97% | 1101.6 hPa | 0 mm | - | 0 W/m² | - |
| 1777443474 | 15° C | 97% | 1101.2 hPa | 0 mm | - | 0 W/m² | - |
| 1777443172 | 15° C | 97% | 1101.6 hPa | 0 mm | - | 0 W/m² | - |
| 1777442869 | 15° C | 98% | 1101.5 hPa | 0 mm | - | 0 W/m² | - |
| 1777442564 | 15° C | 98% | 1101.5 hPa | 0 mm | - | 0 W/m² | - |
| 1777442260 | 15° C | 98% | 1101.2 hPa | 0 mm | - | 0 W/m² | - |
| 1777441956 | 15° C | 98% | 1101.2 hPa | 0 mm | - | 0 W/m² | - |
| 1777441652 | 15° C | 98% | 1101.4 hPa | 0 mm | - | 0 W/m² | - |
| 1777441347 | 15° C | 98% | 1101.2 hPa | 0 mm | - | 0 W/m² | - |
| 1777441043 | 15° C | 98% | 1101.1 hPa | 0 mm | - | 0 W/m² | - |
| 1777440740 | 15° C | 98% | 1100.9 hPa | 0 mm | - | 0 W/m² | - |
| 1777440434 | 15° C | 98% | 1100.9 hPa | 0 mm | - | 0 W/m² | - |
* Rain latest hour (hover to see other rain measurements)
** Current wind speed in m/s (hover to see current wind gust speed)